Location: Fort Wayne
(41.1310°N, 85.1290°W)
Time: 05:22:39
(UTC-04:00)

Courier 1B Rocket - All Passes

Search period start: 28 March 2015 00:00
Search period end: 07 April 2015 00:00
Orbit: 921 x 1202 km, 28.2° (Epoch: 27 March)

Date Brightness Start Highest point End Pass type
(mag) Time Alt. Az. Time Alt. Az. Time Alt. Az.
28 Mar - 12:31:21 10° SSW 12:35:15 16° SSE 12:39:09 10° SE daylight
28 Mar - 14:22:44 10° SW 14:27:49 25° S 14:32:46 10° ESE daylight
28 Mar - 16:15:40 10° WSW 16:20:22 22° S 16:25:00 10° SE daylight
28 Mar - 18:10:50 10° SW 18:12:47 11° SSW 18:14:35 10° S daylight
29 Mar - 11:31:39 10° S 11:34:32 13° SSE 11:37:31 10° SE daylight
29 Mar - 13:22:05 10° SW 13:27:07 23° S 13:31:59 10° ESE daylight
29 Mar - 15:14:40 10° WSW 15:19:42 24° S 15:24:36 10° SE daylight
29 Mar - 17:08:41 10° SW 17:12:10 15° SSW 17:15:32 10° SSE daylight
30 Mar - 12:21:33 10° SSW 12:26:23 21° SSE 12:31:05 10° ESE daylight
30 Mar - 14:13:44 10° SW 14:19:00 26° S 14:24:04 10° SE daylight
30 Mar - 16:07:12 10° WSW 16:11:32 19° SSW 16:15:43 10° SSE daylight
31 Mar - 11:21:15 10° SSW 11:25:38 18° SSE 11:29:58 10° ESE daylight
31 Mar - 13:12:53 10° SW 13:18:17 26° S 13:23:27 10° ESE daylight
31 Mar - 15:05:59 10° WSW 15:10:52 22° S 15:15:34 10° SE daylight
31 Mar - 17:01:29 10° SW 17:03:17 11° SSW 17:04:53 10° S daylight
01 Apr - 10:21:19 10° S 10:24:52 14° SSE 10:28:27 10° SE daylight
01 Apr - 12:12:07 10° SW 12:17:31 24° S 12:22:42 10° ESE daylight
01 Apr - 14:04:52 10° WSW 14:10:10 25° S 14:15:14 10° SE daylight
01 Apr - 15:59:04 10° SW 16:02:40 15° SSW 16:06:03 10° SSE daylight
02 Apr - 09:22:28 10° S 09:24:04 11° SSE 09:25:55 10° SE daylight
02 Apr - 11:11:28 10° SW 11:16:44 22° SSE 11:21:49 10° ESE daylight
02 Apr - 13:03:50 10° WSW 13:09:26 27° S 13:14:45 10° SE daylight
02 Apr - 14:57:28 10° WSW 15:02:00 19° SSW 15:06:19 10° SSE daylight
03 Apr - 10:11:03 10° SSW 10:15:56 19° SSE 10:20:42 10° ESE daylight
03 Apr - 12:02:53 10° SW 12:08:40 27° S 12:14:08 10° ESE daylight
03 Apr - 13:56:08 10° WSW 14:01:19 23° SSW 14:06:14 10° SE daylight
03 Apr - 15:51:44 10° SW 15:53:44 11° SSW 15:55:30 10° S daylight
04 Apr - 09:11:00 10° SSW 09:15:06 16° SSE 09:19:15 10° SE daylight
04 Apr - 11:02:02 10° SW 11:07:51 26° S 11:13:23 10° ESE daylight
04 Apr - 12:54:55 10° WSW 13:00:35 26° S 13:05:55 10° SE daylight
04 Apr - 14:49:14 10° SW 14:53:06 16° SSW 14:56:43 10° SSE daylight
05 Apr - 08:11:44 10° S 08:14:16 12° SSE 08:17:01 10° SE daylight
05 Apr - 10:01:19 10° SW 10:07:00 24° SSE 10:12:28 10° ESE daylight
05 Apr - 11:53:48 10° WSW 11:59:47 28° S 12:05:25 10° SE daylight
05 Apr - 13:47:33 10° WSW 13:52:25 20° SSW 13:57:00 10° SSE daylight
06 Apr - 09:00:50 10° SSW 09:06:08 21° SSE 09:11:19 10° ESE daylight
06 Apr - 10:52:47 10° SW 10:58:56 28° S 11:04:46 10° ESE daylight
06 Apr - 12:46:07 10° WSW 12:51:41 24° SSW 12:56:54 10° SE daylight
06 Apr - 14:41:42 10° SW 14:44:08 12° SSW 14:46:19 10° S daylight
